Location: Chmeli�t?
(49.8978°N, 15.0526°E)
Time: 00:07:09
(UTC+00:00)

Cosmos-2242 - Pass Details

Date: 07 June 2020
Orbit: 591 x 617 km, 82.5° (Epoch: 11 July)

Event Time Altitude Azimuth Distance (km) Brightness Sun altitude
Rises 00:26:14 0° 343° (NNW) 2,840 7.3 -14.8°
Reaches altitude 10° 00:28:34 10° 334° (NNW) 1,933 6.2 -14.6°
Maximum altitude 00:32:27 35° 269° (W) 962 3.8 -14.4°
Enters shadow 00:34:25 23° 220° (SW) 1,280 4.1 -14.3°
